Weather History for P11-b Sea, Netherlands

Change the Weather History Date:

Sunday, December 8, 2013

  Actual Average Record
Temperature  
Mean Temperature 49 °F -  
Max Temperature 51 °F - - ()
Min Temperature 47 °F - - ()
Degree Days  
Heating Degree Days 16    
Moisture  
Dew Point 44 °F    
Average Humidity 80    
Maximum Humidity 87    
Minimum Humidity 70    
Precipitation  
Precipitation 0.00 in - - ()
Sea Level Pressure  
Sea Level Pressure 30.16 in    
Wind  
Wind Speed 20 mph ()    
Max Wind Speed 34 mph    
Max Gust Speed -    
Visibility 7.0 miles    
Events Rain    
T = Trace of Precipitation, MM = Missing Value Source: Averaged Metar Reports

Daily Weather History Graph

Daily Weather History Graph

Search for Another Location

Airport:

Trip Planner

Search our weather history database for the weather conditions in past years. The results will help you decide how hot, cold, wet, or windy it might be!

Date:

Astronomy

Dec. 08, 2013 Rise Set
Actual Time 8:43 AM CET 4:33 PM CET
Civil Twilight 8:02 AM CET 5:14 PM CET
Nautical Twilight 7:18 AM CET 5:58 PM CET
Astronomical Twilight 6:37 AM CET 6:39 PM CET
Moon 12:20 PM CET (12/8) 11:44 PM CET (12/8)
Length of Visible Light 9h 12m
Length of Day
7h 50m
Waxing Crescent, 37% of the Moon is Illuminated
Dec 8
Waxing Crescent
Dec 9
First Quarter
Dec 17
Full
Dec 25
Last Quarter
Jan 1
New

Hourly Weather History & Observations

Time (CET) Temp. Dew Point Humidity Pressure Visibility Wind Dir Wind Speed Gust Speed Precip Events Conditions
12:25 AM 48.2 °F 41.0 °F 76% 30.18 in 6.2 mi North - - N/A   Scattered Clouds
12:55 AM 48.2 °F 42.8 °F 82% 30.18 in 6.2 mi North - - N/A   Mostly Cloudy
1:00 AM 48 °F 42 °F 75% 30.20 in 13 mi 20.1 mph - - Rain Rain
1:25 AM 48.2 °F 42.8 °F 82% 30.18 in 6.2 mi North - - N/A   Scattered Clouds
1:55 AM 48.2 °F 44.6 °F 87% 30.18 in 6.2 mi North - - N/A   Mostly Cloudy
2:25 AM 48.2 °F 42.8 °F 82% 30.18 in 6.2 mi North - - N/A   Partly Cloudy
2:55 AM 48.2 °F 42.8 °F 82% 30.18 in 6.2 mi North - - N/A   Scattered Clouds
3:25 AM 48.2 °F 42.8 °F 82% 30.18 in 6.2 mi North - - N/A   Mostly Cloudy
3:55 AM 48.2 °F 42.8 °F 82% 30.18 in 6.2 mi North - - N/A   Mostly Cloudy
4:00 AM 48 °F 43 °F 77% 30.18 in 11 mi 20.1 mph - -   Partly Cloudy
4:25 AM 48.2 °F 42.8 °F 82% 30.15 in 6.2 mi North - - N/A   Mostly Cloudy
4:55 AM 48.2 °F 42.8 °F 82% 30.15 in 6.2 mi North - - N/A   Mostly Cloudy
5:25 AM 48.2 °F 42.8 °F 82% 30.18 in 6.2 mi North - - N/A   Mostly Cloudy
5:55 AM 48.2 °F 42.8 °F 82% 30.15 in 6.2 mi North - - N/A   Mostly Cloudy
6:25 AM 48.2 °F 42.8 °F 82% 30.15 in 6.2 mi North - - N/A   Overcast
6:55 AM 48.2 °F 42.8 °F 82% 30.15 in 6.2 mi North - - N/A   Overcast
7:00 AM 48 °F 43 °F 77% 30.17 in 13 mi 22.4 mph - -   Partly Cloudy
7:25 AM 48.2 °F 44.6 °F 87% 30.15 in 6.2 mi North - - N/A   Partly Cloudy
7:55 AM 48.2 °F 42.8 °F 82% 30.15 in 6.2 mi North - - N/A   Partly Cloudy
8:25 AM 48.2 °F 42.8 °F 82% 30.15 in 6.2 mi North - - N/A   Partly Cloudy
8:55 AM 48.2 °F 42.8 °F 82% 30.15 in 6.2 mi North - - N/A   Partly Cloudy
9:25 AM 48.2 °F 44.6 °F 87% 30.15 in 6.2 mi North - - N/A   Partly Cloudy
9:55 AM 48.2 °F 44.6 °F 87% 30.18 in 6.2 mi North - - N/A   Partly Cloudy
10:00 AM 49 °F 44 °F 76% 30.20 in 13 mi 26.8 mph - -   Overcast
10:25 AM 48.2 °F 44.6 °F 87% 30.18 in 6.2 mi North - - N/A   Partly Cloudy
10:55 AM 48.2 °F 42.8 °F 82% 30.18 in 6.2 mi North - - N/A   Partly Cloudy
11:25 AM 50.0 °F 44.6 °F 82% 30.18 in 6.2 mi North - - N/A   Unknown
11:55 AM 50.0 °F 44.6 °F 82% 30.15 in 6.2 mi North - - N/A   Unknown
12:25 PM 50.0 °F 44.6 °F 82% 30.18 in 6.2 mi North - - N/A   Unknown
12:55 PM 50.0 °F 44.6 °F 82% 30.15 in 6.2 mi North - - N/A   Partly Cloudy
1:00 PM 50 °F 45 °F 75% 30.17 in 12 mi 26.8 mph - -   Partly Cloudy
1:25 PM 50.0 °F 44.6 °F 82% 30.15 in 6.2 mi North - - N/A   Partly Cloudy
1:55 PM 50.0 °F 44.6 °F 82% 30.15 in 6.2 mi North - - N/A   Partly Cloudy
2:25 PM 50.0 °F 44.6 °F 82% 30.15 in 6.2 mi North - - N/A   Unknown
2:55 PM 50.0 °F 44.6 °F 82% 30.12 in 6.2 mi North - - N/A   Unknown
3:25 PM 50.0 °F 44.6 °F 82% 30.12 in 6.2 mi North - - N/A   Scattered Clouds
3:55 PM 50.0 °F 44.6 °F 82% 30.15 in 6.2 mi North - - N/A   Overcast
4:00 PM 50 °F 44 °F 74% 30.16 in 11 mi 29.1 mph - -   Overcast
4:25 PM 50.0 °F 44.6 °F 82% 30.15 in 6.2 mi North - - N/A   Mostly Cloudy
4:55 PM 50.0 °F 44.6 °F 82% 30.15 in 6.2 mi North - - N/A   Partly Cloudy
5:25 PM 50.0 °F 44.6 °F 82% 30.15 in 6.2 mi North - - N/A   Unknown
5:55 PM 50.0 °F 44.6 °F 82% 30.15 in 6.2 mi North - - N/A   Unknown
6:25 PM 51.8 °F 44.6 °F 76% 30.15 in 6.2 mi North - - N/A   Unknown
6:55 PM 51.8 °F 44.6 °F 76% 30.15 in 6.2 mi North - - N/A   Unknown
7:00 PM 51 °F 44 °F 70% 30.18 in 12 mi 31.3 mph - -   Partly Cloudy
7:25 PM 51.8 °F 44.6 °F 76% 30.18 in 6.2 mi North - - N/A   Unknown
7:55 PM 51.8 °F 44.6 °F 76% 30.15 in 6.2 mi North - - N/A   Unknown
8:25 PM 51.8 °F 44.6 °F 76% 30.15 in 6.2 mi North - - N/A   Unknown
8:55 PM 51.8 °F 44.6 °F 76% 30.18 in 6.2 mi North - - N/A   Unknown
9:25 PM 51.8 °F 44.6 °F 76% 30.18 in 6.2 mi North - - N/A   Unknown
9:55 PM 51.8 °F 44.6 °F 76% 30.18 in 6.2 mi North - - N/A   Unknown
10:00 PM 51 °F 45 °F 74% 30.18 in 11 mi 33.6 mph - -   Scattered Clouds
10:25 PM 51.8 °F 44.6 °F 76% 30.15 in 6.2 mi North - - N/A   Unknown
10:55 PM 51.8 °F 44.6 °F 76% 30.18 in 6.2 mi North - - N/A   Unknown
11:25 PM 51.8 °F 44.6 °F 76% 30.18 in 6.2 mi North - - N/A   Unknown
11:55 PM 51.8 °F 44.6 °F 76% 30.18 in 6.2 mi North - - N/A   Partly Cloudy